Wind_Speed
13 13 12 12 11 11 11 10 10 10 11 11 11 11 11 11 11 11 11 10 10 9 7 7 6 4 4 7 16 9 5 15 18 15 15 13 13 13 14 7 8 9 5 2 2 3 3
15 14 13 12 12 12 12 12 12 12 12 12 12 12 12 12 12 12 11 10 10 9 7 7 6 4 5 14 2 5 4 13 19 18 14 15 14 9 12 12 7 7 2 0 3 4 1
17 17 15 14 12 13 13 13 13 13 13 13 13 13 13 13 13 12 11 10 9 8 7 6 6 6 9 17 5 7 9 10 18 17 15 14 12 11 14 14 10 6 12 9 23 2 4
18 19 19 18 16 15 15 15 15 15 15 15 15 15 15 14 13 12 11 10 8 7 7 6 5 5 10 4 14 8 10 10 14 16 16 12 12 13 17 18 12 12 15 10 7 11 9
18 18 18 19 18 18 17 16 16 16 16 16 16 16 16 15 14 13 11 8 6 5 5 5 5 5 14 10 13 13 13 12 13 16 16 12 9 14 18 15 13 14 12 6 11 9 3
18 18 18 19 19 19 19 18 17 17 17 17 17 17 17 15 14 12 10 5 3 3 4 6 8 9 20 11 10 15 14 12 13 14 16 15 13 12 14 13 15 8 9 7 5 10 6
18 18 19 19 19 20 20 20 19 18 18 18 18 18 17 15 13 10 6 2 3 3 14 13 12 13 3 7 11 16 16 13 13 16 14 19 13 15 18 17 16 16 8 11 9 4 1
18 19 20 20 20 21 21 21 21 20 20 20 21 19 17 14 12 9 6 6 9 8 13 25 20 17 5 10 11 15 17 16 16 14 17 14 15 18 17 16 17 13 13 10 10 7 3
18 20 21 21 21 22 23 23 23 22 22 22 22 21 15 13 9 9 9 10 9 9 9 16 23 22 18 11 16 20 20 22 17 16 16 17 18 20 16 16 16 14 10 13 12 6 7
18 20 22 22 23 24 25 25 25 25 24 23 23 21 13 9 4 3 7 7 7 6 6 11 17 18 20 15 18 20 21 22 13 15 17 15 19 18 9 13 17 13 12 14 11 11 10
17 20 22 23 23 25 26 26 26 26 25 24 24 20 13 7 3 2 2 1 3 4 5 12 13 6 17 18 5 21 22 23 18 15 12 16 16 14 17 14 15 12 14 15 11 12 12
16 19 22 24 25 26 27 28 27 27 27 24 23 18 8 4 7 9 1 4 3 5 9 10 11 11 15 20 16 18 22 21 18 17 15 14 20 9 12 14 13 14 10 10 12 12 12
16 18 21 23 25 27 29 29 29 28 28 24 22 12 5 6 3 3 5 5 6 8 11 11 13 14 16 16 19 14 17 18 16 13 16 17 17 17 9 13 11 14 12 9 11 9 13
16 17 20 23 25 27 29 31 30 29 28 24 18 6 5 9 5 4 6 7 8 14 8 7 3 16 13 14 17 15 14 16 20 21 15 13 12 23 18 16 14 13 14 12 14 10 9
15 16 19 22 25 28 30 32 31 29 27 24 11 2 5 4 8 7 11 10 8 9 11 8 7 11 14 15 11 19 17 16 18 19 19 16 14 9 15 15 14 15 11 14 16 16 13
14 15 18 22 25 28 32 33 31 29 25 22 9 7 7 6 7 8 9 15 19 18 9 12 13 9 12 14 18 16 17 17 20 20 20 19 14 6 6 6 12 16 13 11 10 10 13
13 15 18 21 25 28 30 32 33 30 25 18 6 7 8 7 8 11 10 14 16 8 1 8 14 17 17 14 14 17 18 17 16 15 17 15 16 16 11 9 14 9 11 11 15 11 11
13 15 18 22 25 28 29 31 32 31 27 17 6 4 7 9 10 11 12 19 8 10 13 8 12 14 16 19 17 18 15 17 16 15 15 16 11 13 19 12 15 14 15 15 9 14 10
14 16 19 21 24 27 29 30 28 27 28 26 9 15 5 9 8 11 16 18 14 13 15 9 14 12 12 16 15 17 18 4 7 2 3 8 9 13 17 17 17 16 16 18 14 15 12
15 16 18 21 24 26 28 29 27 21 21 20 8 4 11 9 16 16 15 15 16 11 9 14 14 12 15 14 13 15 17 13 6 5 7 3 12 17 14 16 11 17 16 13 13 11 15
16 18 19 21 25 26 27 28 25 20 12 14 6 5 10 6 4 11 12 15 16 15 10 9 9 12 15 16 15 16 15 18 10 10 4 8 16 19 23 21 21 20 17 13 13 15 14
17 18 19 21 23 25 26 26 24 20 9 5 9 9 17 20 19 14 11 14 16 16 15 16 10 12 14 10 13 14 18 14 12 7 12 12 16 18 21 21 23 24 23 20 16 16 16
17 18 19 20 22 24 24 22 21 18 13 5 12 10 11 12 14 11 10 8 13 11 11 15 13 14 12 12 15 18 21 22 16 15 15 12 10 13 20 20 22 23 22 21 20 21 19
18 19 20 21 21 23 22 20 15 14 13 8 12 13 11 10 13 7 12 14 12 13 14 15 15 11 13 17 18 22 24 23 22 20 20 13 11 11 13 15 22 14 16 17 20 18 16
18 19 20 19 19 21 20 18 14 12 11 9 9 10 10 8 18 15 16 13 14 14 13 15 18 17 17 17 12 13 12 17 20 20 19 17 12 12 13 16 23 21 15 14 15 16 14
20 19 18 18 17 19 18 16 13 13 11 7 6 8 9 10 5 16 15 15 11 11 13 15 14 3 10 9 10 15 12 13 10 14 18 18 15 11 12 18 24 14 16 16 14 13 19
19 18 18 16 15 15 16 14 13 13 11 8 3 10 6 13 14 10 11 11 15 14 9 16 11 6 8 8 10 12 13 15 16 17 14 7 8 14 14 17 20 15 18 25 6 12 10
15 16 14 13 13 11 14 13 13 13 12 6 3 9 6 10 25 16 12 14 14 14 8 13 9 9 7 10 10 10 11 13 15 16 15 14 11 11 16 13 20 19 8 4 12 2 5
13 13 12 10 9 11 11 11 13 14 12 5 3 8 10 14 21 24 24 23 20 18 17 14 16 15 7 7 7 6 11 12 13 10 8 11 8 6 8 9 16 19 16 14 19 9 2
Wind_Direction
29 24 18 12 8 4 358 355 350 347 343 339 333 329 326 322 316 308 300 292 287 285 287 292 298 287 251 253 262 254 257 216 205 206 215 231 231 242 271 326 272 234 357 114 101 347 72
26 19 13 9 4 360 354 349 347 344 342 338 334 330 328 325 321 315 306 294 285 281 279 280 280 267 245 252 182 272 255 205 200 200 213 227 231 256 307 289 286 16 324 284 211 45 104
28 27 21 16 11 5 360 353 347 342 338 335 332 329 327 325 322 320 310 298 285 276 271 264 261 255 254 233 227 226 210 207 198 206 217 223 245 273 255 261 254 269 258 202 5 9 106
33 31 30 28 20 10 3 356 350 345 339 334 330 327 326 324 323 321 312 303 287 269 257 242 240 244 257 279 228 216 203 209 207 212 223 234 245 269 276 287 289 244 248 237 227 250 137
27 26 22 20 15 9 3 356 351 346 339 334 330 326 323 322 321 320 316 306 289 272 245 211 202 244 259 224 226 211 199 200 202 210 220 237 271 248 258 251 257 232 252 110 201 189 231
21 18 16 14 12 9 4 359 352 346 340 336 331 325 321 319 317 318 317 301 261 221 209 199 210 255 243 234 215 194 198 199 201 207 213 227 242 236 236 258 250 322 225 184 175 170 184
19 15 11 8 7 6 3 358 352 347 343 337 331 326 320 314 313 311 299 251 277 225 210 217 183 220 121 213 177 191 191 199 199 205 213 211 233 233 235 229 267 298 329 317 312 260 111
14 11 8 7 6 4 2 360 355 348 343 338 333 329 321 309 307 299 253 218 357 316 294 239 239 231 265 183 189 198 192 201 204 211 215 233 222 244 246 259 263 259 269 261 255 237 299
9 9 8 7 6 4 2 358 354 348 343 337 333 331 323 309 305 289 243 240 312 317 274 258 214 222 209 210 214 197 194 204 200 225 222 232 241 213 236 260 250 259 280 281 297 303 300
4 5 3 1 360 359 357 355 352 346 342 336 331 330 322 308 327 342 258 292 274 305 280 188 195 220 213 207 232 221 198 205 239 230 227 243 238 271 230 248 261 260 243 251 259 274 282
359 2 4 2 359 357 355 354 351 346 341 337 331 329 316 265 229 208 64 224 261 268 280 136 156 183 190 194 250 206 192 214 232 225 241 240 236 247 254 246 268 246 273 285 291 281 277
355 357 358 360 359 358 356 353 351 347 341 338 331 327 313 252 245 201 238 260 289 237 248 154 148 191 187 208 239 179 185 212 232 259 256 252 266 250 254 260 234 269 281 276 265 258 264
349 351 354 356 356 355 354 353 351 347 340 339 331 322 277 205 57 263 238 229 229 242 140 152 171 182 210 194 232 160 195 199 223 225 242 253 238 250 228 264 251 232 239 257 255 230 244
345 347 351 353 354 353 352 351 349 349 341 340 330 313 271 209 234 227 198 228 251 269 236 84 194 170 203 208 212 206 208 220 217 244 268 226 234 212 215 215 254 212 239 244 252 263 327
341 344 349 352 352 352 351 349 347 348 346 340 337 303 277 317 202 198 220 226 244 292 1 7 226 258 196 212 208 223 211 220 226 215 251 268 270 122 198 204 215 253 226 257 278 286 286
336 341 346 351 352 353 352 350 347 348 350 340 335 259 234 205 187 180 235 248 288 309 336 310 283 253 253 211 190 232 216 220 232 225 214 257 277 235 183 206 219 228 266 246 231 259 271
333 340 345 349 351 351 353 352 350 349 353 342 316 259 156 168 177 222 238 249 255 291 348 281 280 286 295 280 227 213 234 247 235 229 218 228 260 274 212 187 246 196 233 252 276 287 289
332 338 341 345 350 352 354 355 353 348 352 357 297 269 160 183 218 232 244 250 267 307 293 243 267 283 291 307 301 289 243 247 260 197 241 209 252 242 259 248 200 248 263 224 216 233 255
331 334 337 341 346 350 351 353 354 351 350 350 307 294 200 213 245 238 254 244 254 278 276 270 269 266 280 277 283 285 294 342 354 193 269 270 238 251 265 269 241 229 229 238 273 282 248
325 328 332 339 342 346 350 350 353 354 343 339 296 288 190 205 251 283 292 294 304 281 232 295 292 306 295 287 279 275 280 277 164 226 53 334 273 273 255 243 270 324 223 284 243 266 273
322 327 330 336 341 345 349 349 351 353 346 335 270 333 358 292 277 338 327 315 301 296 268 223 283 270 267 278 276 268 261 266 220 159 233 256 253 263 276 289 293 291 274 264 241 260 267
321 324 328 334 338 341 345 349 351 356 7 334 343 345 330 298 291 274 271 267 272 275 269 280 269 266 286 282 286 306 325 317 296 213 201 231 253 262 268 272 273 274 276 276 269 268 273
316 320 323 326 332 337 342 349 352 1 12 350 348 323 306 294 292 280 278 315 323 343 321 314 298 307 296 355 348 321 309 303 300 302 293 228 237 246 257 256 258 256 263 276 280 280 280
315 317 319 323 327 334 336 348 354 2 9 6 339 330 302 302 301 306 324 332 311 305 307 302 318 304 284 308 320 300 282 274 275 278 280 282 278 276 276 281 259 268 283 292 290 287 288
314 314 317 322 326 329 332 345 350 354 352 2 1 335 320 303 315 311 337 340 321 294 267 264 270 271 288 289 286 279 258 256 260 263 254 262 268 264 262 260 272 266 267 279 297 315 301
308 311 313 315 318 320 328 341 345 348 345 334 352 326 301 291 49 338 314 293 282 292 297 278 253 256 295 284 276 266 257 271 263 247 234 244 243 245 247 258 262 275 284 315 328 284 296
300 304 306 310 312 317 329 334 340 347 352 357 276 331 312 291 279 347 322 325 316 321 308 304 323 257 266 263 264 263 265 258 256 261 272 237 250 254 244 244 257 275 277 290 177 264 345
296 300 302 307 307 313 326 327 336 344 349 346 252 307 333 292 285 294 305 301 295 268 266 333 311 289 249 261 265 274 267 267 270 270 265 263 241 224 257 265 270 19 336 356 352 280 214
295 295 298 298 294 315 320 325 334 339 345 8 13 312 306 285 271 289 283 273 263 266 289 291 292 305 305 318 353 322 309 297 309 281 270 269 300 331 261 278 320 301 300 325 359 305 306
Height
1549 1547 1545 1543 1541 1539 1537 1535 1533 1531 1529 1527 1526 1524 1522 1520 1519 1517 1517 1516 1515 1515 1515 1515 1514 1513 1513 1513 1506 1504 1505 1506 1509 1511 1513 1513 1512 1507 1500 1494 1495 1493 1496 1499 1499 1497 1498
1551 1548 1546 1544 1542 1539 1537 1535 1533 1531 1529 1527 1525 1523 1521 1519 1517 1516 1515 1514 1514 1513 1514 1513 1513 1513 1513 1512 1505 1502 1503 1504 1507 1509 1512 1511 1508 1505 1502 1499 1496 1494 1497 1495 1496 1495 1498
1552 1549 1547 1544 1542 1540 1537 1535 1532 1530 1528 1526 1524 1521 1520 1518 1516 1515 1513 1512 1512 1512 1512 1512 1512 1512 1512 1505 1504 1505 1505 1504 1506 1509 1510 1509 1508 1507 1502 1496 1494 1497 1494 1489 1508 1496 1498
1554 1551 1549 1546 1543 1541 1538 1535 1532 1529 1527 1525 1522 1520 1518 1516 1514 1513 1511 1510 1510 1510 1510 1511 1511 1511 1507 1500 1503 1503 1504 1505 1507 1509 1509 1508 1509 1508 1504 1498 1494 1496 1490 1493 1502 1494 1496
1557 1554 1551 1548 1545 1542 1538 1535 1532 1529 1526 1524 1521 1518 1516 1514 1513 1511 1510 1509 1508 1508 1509 1510 1511 1511 1503 1497 1499 1500 1502 1503 1505 1507 1509 1509 1509 1508 1505 1498 1496 1486 1497 1499 1499 1491 1493
1558 1555 1553 1550 1546 1543 1539 1536 1532 1529 1526 1523 1520 1517 1515 1513 1511 1509 1508 1507 1507 1508 1508 1509 1509 1514 1496 1494 1495 1497 1500 1502 1504 1505 1507 1509 1509 1506 1500 1497 1504 1485 1485 1481 1489 1490 1489
1560 1557 1554 1550 1547 1543 1540 1536 1532 1529 1525 1522 1519 1516 1513 1511 1509 1508 1507 1507 1509 1508 1508 1498 1495 1492 1490 1491 1493 1496 1498 1501 1503 1504 1503 1504 1506 1504 1494 1486 1482 1479 1483 1490 1483 1479 1489
1561 1558 1555 1551 1547 1543 1540 1536 1532 1528 1524 1520 1517 1514 1511 1508 1507 1506 1505 1505 1504 1504 1497 1491 1492 1491 1490 1491 1493 1494 1497 1499 1499 1499 1498 1498 1501 1490 1485 1481 1480 1478 1484 1490 1481 1476 1485
1562 1559 1555 1551 1547 1543 1539 1535 1531 1527 1523 1519 1514 1511 1508 1506 1504 1503 1503 1504 1504 1503 1496 1478 1484 1486 1487 1491 1488 1489 1494 1494 1493 1495 1491 1495 1484 1479 1483 1482 1484 1482 1487 1485 1485 1477 1477
1562 1559 1555 1551 1547 1543 1539 1535 1530 1525 1521 1516 1512 1508 1506 1505 1505 1503 1503 1502 1504 1504 1495 1470 1477 1480 1484 1487 1485 1483 1488 1491 1487 1488 1485 1483 1478 1476 1478 1482 1478 1489 1475 1477 1481 1487 1500
1563 1559 1556 1552 1547 1543 1538 1533 1528 1523 1518 1514 1509 1505 1503 1502 1502 1503 1504 1504 1503 1504 1506 1468 1471 1473 1476 1481 1473 1476 1483 1488 1484 1481 1481 1481 1475 1479 1481 1478 1473 1482 1475 1475 1476 1485 1486
1562 1559 1556 1551 1547 1542 1537 1532 1527 1521 1516 1511 1506 1502 1500 1500 1501 1501 1502 1503 1504 1503 1493 1464 1467 1472 1474 1477 1471 1472 1479 1485 1483 1479 1473 1473 1468 1468 1471 1469 1472 1474 1477 1477 1479 1484 1503
1562 1559 1555 1551 1546 1542 1536 1531 1525 1519 1513 1508 1503 1499 1498 1498 1501 1501 1502 1503 1501 1497 1452 1459 1463 1464 1469 1471 1471 1471 1476 1480 1485 1491 1487 1472 1469 1467 1470 1476 1470 1473 1484 1505 1505 1498 1495
1562 1559 1555 1551 1546 1541 1535 1529 1523 1517 1510 1505 1500 1497 1496 1496 1497 1500 1502 1501 1502 1459 1445 1443 1448 1456 1466 1462 1468 1464 1471 1477 1474 1473 1472 1475 1475 1457 1461 1470 1474 1472 1475 1492 1508 1490 1475
1561 1558 1554 1550 1546 1540 1535 1528 1522 1515 1509 1502 1498 1496 1494 1495 1495 1500 1501 1496 1474 1454 1449 1449 1449 1454 1456 1454 1459 1461 1464 1468 1463 1466 1479 1470 1461 1442 1450 1457 1466 1471 1478 1464 1476 1468 1476
1560 1557 1553 1550 1545 1540 1534 1527 1520 1514 1508 1501 1497 1496 1495 1496 1497 1499 1496 1489 1467 1459 1458 1460 1466 1448 1456 1448 1456 1456 1456 1451 1455 1453 1456 1461 1472 1446 1450 1454 1458 1464 1460 1477 1470 1501 1506
1559 1556 1553 1549 1545 1539 1534 1527 1519 1512 1507 1501 1497 1493 1492 1494 1497 1497 1490 1473 1462 1457 1463 1467 1463 1457 1448 1445 1440 1445 1449 1444 1441 1444 1447 1453 1460 1458 1445 1458 1463 1463 1470 1467 1464 1466 1483
1558 1555 1552 1548 1544 1539 1534 1527 1520 1512 1506 1502 1499 1488 1490 1493 1494 1486 1479 1470 1466 1462 1464 1465 1464 1460 1458 1450 1447 1441 1441 1440 1436 1438 1446 1447 1453 1466 1457 1439 1443 1448 1453 1452 1471 1480 1470
1557 1554 1551 1547 1543 1539 1534 1528 1522 1516 1509 1504 1501 1491 1489 1491 1487 1475 1466 1461 1460 1464 1464 1461 1461 1457 1455 1457 1461 1449 1442 1437 1441 1439 1447 1444 1454 1471 1465 1449 1437 1444 1443 1444 1446 1447 1462
1555 1553 1550 1547 1543 1538 1533 1528 1523 1518 1513 1509 1504 1485 1481 1485 1484 1479 1474 1467 1461 1461 1463 1466 1464 1463 1462 1459 1454 1457 1450 1441 1446 1447 1452 1454 1457 1461 1467 1454 1437 1446 1438 1440 1445 1461 1456
1554 1551 1549 1546 1542 1538 1533 1528 1522 1518 1514 1511 1503 1488 1489 1483 1472 1475 1473 1471 1468 1466 1459 1463 1465 1466 1464 1465 1457 1454 1449 1445 1443 1449 1453 1456 1465 1459 1449 1443 1442 1444 1443 1441 1448 1448 1457
1552 1550 1547 1544 1541 1537 1533 1528 1523 1518 1513 1512 1510 1507 1500 1494 1485 1482 1478 1476 1473 1467 1463 1462 1461 1460 1460 1461 1458 1460 1454 1451 1447 1444 1450 1453 1462 1458 1459 1451 1448 1449 1441 1439 1440 1443 1444
1550 1548 1545 1542 1539 1536 1532 1528 1524 1519 1516 1516 1515 1512 1508 1495 1486 1478 1471 1470 1469 1468 1470 1469 1467 1467 1467 1466 1470 1469 1465 1460 1454 1453 1449 1449 1454 1461 1465 1453 1451 1456 1448 1443 1441 1440 1442
1548 1546 1543 1540 1538 1534 1531 1528 1524 1522 1520 1518 1519 1516 1510 1495 1484 1476 1476 1478 1479 1478 1477 1474 1473 1472 1472 1470 1471 1469 1464 1460 1458 1455 1452 1453 1455 1459 1464 1458 1470 1443 1436 1436 1441 1436 1436
1546 1543 1541 1538 1536 1533 1530 1527 1525 1522 1520 1518 1517 1517 1512 1502 1493 1486 1483 1480 1481 1480 1478 1476 1476 1476 1475 1475 1474 1471 1463 1461 1456 1451 1451 1452 1455 1461 1469 1466 1452 1444 1441 1441 1443 1446 1436
1542 1540 1538 1536 1534 1532 1529 1526 1524 1522 1519 1517 1517 1516 1516 1509 1491 1494 1491 1489 1484 1478 1474 1471 1469 1474 1477 1475 1471 1475 1471 1459 1455 1446 1444 1446 1449 1459 1464 1473 1469 1445 1436 1436 1442 1458 1445
1539 1537 1535 1534 1532 1530 1527 1525 1523 1521 1519 1517 1516 1516 1515 1509 1497 1497 1493 1493 1491 1486 1481 1475 1472 1471 1474 1472 1470 1466 1460 1449 1457 1454 1451 1450 1450 1456 1453 1456 1447 1438 1439 1438 1463 1467 1448
1535 1534 1532 1531 1530 1528 1526 1524 1522 1520 1518 1517 1516 1516 1515 1510 1498 1497 1496 1494 1492 1488 1485 1477 1478 1471 1472 1471 1466 1460 1456 1448 1446 1442 1444 1447 1451 1458 1455 1455 1464 1449 1443 1457 1451 1440 1445
1531 1531 1530 1529 1528 1526 1525 1523 1521 1519 1517 1516 1518 1516 1515 1512 1499 1494 1492 1492 1492 1491 1491 1487 1483 1481 1475 1472 1465 1462 1457 1448 1446 1450 1437 1450 1444 1456 1453 1449 1446 1451 1452 1453 1452 1453 1452